When you browse on this site, cookies collect data to enhance your experience and personalize the content and advertising you see.
Visit our Privacy Policy to learn more. By continuing to use the site, you agree to this use of cookies and data.
EN

Hourly Weather Alicun

Today, 13 August, Thursday

Time Temperature Precipitation Wind Pressure Humidity
00:00 +19°C° 0 mm 0 mps 697 mmHg 49%
01:00 +19°C° 0 mm 0 mps 697 mmHg 51%
02:00 +18°C° 0 mm 0 mps 696 mmHg 54%
03:00 +20°C° 0 mm 1 mps 696 mmHg 56%
04:00 +18°C° 0 mm 0 mps 696 mmHg 57%
05:00 +17°C° 0 mm 0 mps 697 mmHg 58%
06:00 +18°C° 0 mm 0 mps 697 mmHg 57%
07:00 +20°C° 0 mm 0 mps 697 mmHg 49%
08:00 +25°C° 0 mm 1 mps 698 mmHg 40%
09:00 +27°C° 0 mm 1 mps 698 mmHg 32%
10:00 +29°C° 0 mm 1 mps 699 mmHg 26%
11:00 +31°C° 0 mm 1 mps 699 mmHg 21%
12:00 +34°C° 0 mm 2 mps 699 mmHg 15%
13:00 +34°C° 0 mm 3 mps 699 mmHg 13%
14:00 +35°C° 0 mm 3 mps 698 mmHg 12%
15:00 +36°C° 0 mm 4 mps 698 mmHg 10%
16:00 +35°C° 0 mm 4 mps 698 mmHg 13%
17:00 +34°C° 0 mm 4 mps 698 mmHg 15%
18:00 +33°C° 0 mm 4 mps 697 mmHg 17%
19:00 +30°C° 0 mm 3 mps 697 mmHg 22%
20:00 +27°C° 0 mm 2 mps 697 mmHg 26%
21:00 +25°C° 0 mm 1 mps 697 mmHg 31%
22:00 +24°C° 0 mm 1 mps 697 mmHg 32%
23:00 +24°C° 0 mm 1 mps 697 mmHg 34%

Tomorrow, 14 August, Friday

Time Temperature Precipitation Wind Pressure Humidity
00:00 +23°C° 0 mm 1 mps 697 mmHg 35%
01:00 +22°C° 0 mm 1 mps 697 mmHg 37%
02:00 +21°C° 0 mm 1 mps 696 mmHg 38%
03:00 +21°C° 0 mm 1 mps 696 mmHg 40%
04:00 +19°C° 0 mm 0 mps 696 mmHg 42%
05:00 +18°C° 0 mm 0 mps 696 mmHg 45%
06:00 +18°C° 0 mm 0 mps 696 mmHg 48%
07:00 +23°C° 0 mm 1 mps 697 mmHg 41%
08:00 +26°C° 0 mm 1 mps 697 mmHg 34%
09:00 +28°C° 0 mm 1 mps 697 mmHg 27%
10:00 +30°C° 0 mm 1 mps 698 mmHg 22%
11:00 +32°C° 0 mm 2 mps 698 mmHg 17%
12:00 +35°C° 0 mm 2 mps 698 mmHg 12%
13:00 +36°C° 0 mm 3 mps 698 mmHg 11%
14:00 +37°C° 0 mm 4 mps 697 mmHg 9%
15:00 +39°C° 0 mm 5 mps 697 mmHg 8%
16:00 +36°C° 0 mm 5 mps 697 mmHg 10%
17:00 +35°C° 0 mm 5 mps 697 mmHg 13%
18:00 +34°C° 0 mm 5 mps 697 mmHg 15%
19:00 +30°C° 0 mm 3 mps 697 mmHg 20%
20:00 +28°C° 0 mm 2 mps 697 mmHg 26%
21:00 +25°C° 0 mm 1 mps 697 mmHg 31%
22:00 +25°C° 0 mm 1 mps 697 mmHg 32%
23:00 +24°C° 0 mm 1 mps 696 mmHg 33%

Day after tomorrow, 15 August, Saturday

Time Temperature Precipitation Wind Pressure Humidity
00:00 +23°C° 0 mm 1 mps 696 mmHg 34%
01:00 +22°C° 0 mm 1 mps 696 mmHg 37%
02:00 +22°C° 0 mm 1 mps 696 mmHg 39%
03:00 +21°C° 0 mm 1 mps 695 mmHg 42%
04:00 +21°C° 0 mm 1 mps 695 mmHg 44%
05:00 +20°C° 0 mm 1 mps 696 mmHg 46%
06:00 +18°C° 0 mm 0 mps 696 mmHg 48%
07:00 +22°C° 0 mm 1 mps 696 mmHg 42%
08:00 +25°C° 0 mm 1 mps 697 mmHg 36%
09:00 +27°C° 0 mm 1 mps 697 mmHg 29%
10:00 +29°C° 0 mm 2 mps 697 mmHg 25%
11:00 +31°C° 0 mm 2 mps 697 mmHg 21%
12:00 +34°C° 0 mm 3 mps 698 mmHg 17%
13:00 +34°C° 0 mm 4 mps 697 mmHg 16%
14:00 +35°C° 0 mm 5 mps 697 mmHg 15%
15:00 +36°C° 0 mm 5 mps 697 mmHg 14%
16:00 +34°C° 0 mm 5 mps 696 mmHg 16%
17:00 +33°C° 0 mm 5 mps 696 mmHg 18%
18:00 +32°C° 0 mm 5 mps 695 mmHg 19%
19:00 +29°C° 0 mm 4 mps 695 mmHg 22%
20:00 +26°C° 0 mm 2 mps 695 mmHg 26%
21:00 +24°C° 0 mm 1 mps 695 mmHg 29%
22:00 +23°C° 0 mm 1 mps 695 mmHg 30%
23:00 +23°C° 0 mm 1 mps 695 mmHg 31%

16 August, Sunday

Time Temperature Precipitation Wind Pressure Humidity
00:00 +22°C° 0 mm 1 mps 695 mmHg 32%
01:00 +21°C° 0 mm 1 mps 694 mmHg 35%
02:00 +20°C° 0 mm 1 mps 694 mmHg 37%
03:00 +20°C° 0 mm 1 mps 694 mmHg 40%
04:00 +19°C° 0 mm 1 mps 694 mmHg 44%
05:00 +19°C° 0 mm 1 mps 694 mmHg 48%
06:00 +19°C° 0 mm 1 mps 694 mmHg 52%
07:00 +21°C° 0 mm 1 mps 694 mmHg 45%
08:00 +23°C° 0 mm 1 mps 695 mmHg 38%
09:00 +26°C° 0 mm 1 mps 696 mmHg 31%
10:00 +27°C° 0 mm 2 mps 696 mmHg 26%
11:00 +29°C° 0 mm 2 mps 696 mmHg 22%
12:00 +31°C° 0 mm 3 mps 697 mmHg 17%
13:00 +33°C° 0 mm 3 mps 696 mmHg 17%
14:00 +33°C° 0 mm 4 mps 696 mmHg 16%
15:00 +34°C° 0 mm 5 mps 696 mmHg 16%
16:00 +33°C° 0 mm 5 mps 696 mmHg 17%
17:00 +32°C° 0 mm 5 mps 695 mmHg 18%
18:00 +30°C° 0 mm 5 mps 695 mmHg 19%
19:00 +28°C° 0 mm 3 mps 695 mmHg 22%
20:00 +25°C° 0 mm 2 mps 695 mmHg 25%
21:00 +23°C° 0 mm 1 mps 695 mmHg 28%
22:00 +23°C° 0 mm 1 mps 695 mmHg 29%
23:00 +22°C° 0 mm 1 mps 695 mmHg 30%

17 August, Monday

Time Temperature Precipitation Wind Pressure Humidity
00:00 +21°C° 0 mm 1 mps 695 mmHg 31%
01:00 +20°C° 0 mm 1 mps 695 mmHg 33%
02:00 +20°C° 0 mm 1 mps 695 mmHg 35%
03:00 +19°C° 0 mm 1 mps 694 mmHg 37%
04:00 +19°C° 0 mm 1 mps 695 mmHg 40%
05:00 +19°C° 0 mm 1 mps 695 mmHg 42%
06:00 +17°C° 0 mm 0 mps 695 mmHg 45%
07:00 +21°C° 0 mm 1 mps 696 mmHg 38%
08:00 +24°C° 0 mm 1 mps 696 mmHg 31%
09:00 +27°C° 0 mm 1 mps 697 mmHg 25%
10:00 +29°C° 0 mm 1 mps 697 mmHg 22%
11:00 +30°C° 0 mm 1 mps 698 mmHg 19%
12:00 +32°C° 0 mm 2 mps 698 mmHg 16%
13:00 +34°C° 0 mm 2 mps 698 mmHg 15%
14:00 +35°C° 0 mm 2 mps 698 mmHg 14%
15:00 +36°C° 0 mm 3 mps 697 mmHg 13%
16:00 +35°C° 0 mm 3 mps 697 mmHg 14%
17:00 +34°C° 0 mm 4 mps 697 mmHg 15%
18:00 +34°C° 0 mm 4 mps 697 mmHg 17%
19:00 +30°C° 0 mm 3 mps 697 mmHg 20%
20:00 +27°C° 0 mm 2 mps 697 mmHg 23%
21:00 +25°C° 0 mm 1 mps 697 mmHg 27%
22:00 +24°C° 0 mm 1 mps 697 mmHg 28%
23:00 +21°C° 0 mm 0 mps 697 mmHg 29%

18 August, Tuesday

Time Temperature Precipitation Wind Pressure Humidity
00:00 +21°C° 0 mm 0 mps 696 mmHg 31%
01:00 +20°C° 0 mm 0 mps 696 mmHg 32%
02:00 +20°C° 0 mm 0 mps 696 mmHg 33%
03:00 +21°C° 0 mm 1 mps 696 mmHg 34%
04:00 +21°C° 0 mm 1 mps 696 mmHg 35%
05:00 +21°C° 0 mm 1 mps 696 mmHg 36%
06:00 +21°C° 0 mm 1 mps 696 mmHg 37%
07:00 +24°C° 0 mm 1 mps 696 mmHg 31%
08:00 +27°C° 0 mm 1 mps 697 mmHg 26%
09:00 +30°C° 0 mm 1 mps 698 mmHg 20%
10:00 +32°C° 0 mm 2 mps 698 mmHg 18%
11:00 +34°C° 0 mm 2 mps 698 mmHg 17%
12:00 +36°C° 0 mm 2 mps 698 mmHg 15%
13:00 +36°C° 0 mm 2 mps 698 mmHg 15%
14:00 +37°C° 0 mm 2 mps 697 mmHg 15%
15:00 +38°C° 0 mm 2 mps 697 mmHg 15%
16:00 +37°C° 0 mm 3 mps 697 mmHg 17%
17:00 +36°C° 0 mm 3 mps 697 mmHg 20%
18:00 +35°C° 0 mm 3 mps 697 mmHg 22%
19:00 +32°C° 0 mm 2 mps 697 mmHg 28%
20:00 +29°C° 0 mm 2 mps 697 mmHg 34%
21:00 +27°C° 0 mm 1 mps 697 mmHg 39%
22:00 +26°C° 0 mm 1 mps 696 mmHg 43%
23:00 +25°C° 0 mm 1 mps 696 mmHg 48%
Show more